Waarnemingen

Advertentie
Mijn weer
Gioia Del Colle, Italië (16312): temperatuur & dauwpunt: 12.02.2019 01:00:00 - 18.02.2019 01:00:00 (CET)Gioia Del Colle, Italië (16312): windsnelheid: 12.02.2019 01:00:00 - 18.02.2019 01:00:00 (CET)Gioia Del Colle, Italië (16312): windrichting: 12.02.2019 01:00:00 - 18.02.2019 01:00:00 (CET)Gioia Del Colle, Italië (16312): luchtdruk: 12.02.2019 01:00:00 - 18.02.2019 01:00:00 (CET)Gioia Del Colle, Italië (16312): zicht: 12.02.2019 01:00:00 - 18.02.2019 01:00:00 (CET)
Datum & Tijd tt [°C] td [°C] ff [km/u] ff [kn] dd ppp [hPa] vv [km]
18.02.2019 01:00:00 0,4 -0,8 2 1 ONO 1026,8 10
18.02.2019 00:00:00 1,0 -1,0 2 1 - - 10
17.02.2019 23:00:00 2,0 0,0 2 1 - - 10
17.02.2019 22:00:00 2,4 0,3 2 1 N 1026,8 10
17.02.2019 21:00:00 4,0 1,0 4 2 W - 10
17.02.2019 20:00:00 5,0 1,0 5 3 NW - 10
17.02.2019 19:00:00 6,6 -1,1 5 3 NNO 1026,3 10
17.02.2019 18:00:00 9,0 -2,0 4 2 N - 10
17.02.2019 17:00:00 11,0 -3,0 9 5 NNO - 10
17.02.2019 16:00:00 12,0 -4,2 11 6 N 1025,6 10
17.02.2019 15:00:00 12,0 -4,0 9 5 NNW - 10
17.02.2019 14:00:00 11,0 -2,0 13 7 N - 10
17.02.2019 13:00:00 10,8 -1,9 9 5 N 1027,2 10
17.02.2019 12:00:00 10,0 -3,0 13 7 N - 10
17.02.2019 11:00:00 10,0 -5,0 13 7 N - 10
17.02.2019 10:00:00 9,0 -4,9 11 6 N 1027,6 10
17.02.2019 09:00:00 5,0 0,0 5 3 NNW - 10
17.02.2019 08:00:00 2,0 -2,0 2 1 N - 10
17.02.2019 07:00:00 0,6 -2,4 5 3 NNW 1029,1 10
17.02.2019 06:00:00 1,0 -2,0 8 4 NNW - 10
17.02.2019 05:00:00 1,0 -2,0 4 2 NNW - 10
17.02.2019 04:00:00 2,0 -0,8 9 5 NNW 1028,6 10
17.02.2019 03:00:00 2,0 1,0 8 4 NNW - 10
17.02.2019 02:00:00 2,0 1,0 5 3 NNW - 10
17.02.2019 01:00:00 2,0 0,8 11 6 WNW 1029,2 10
17.02.2019 00:00:00 4,0 2,0 11 6 WNW - 10
16.02.2019 23:00:00 4,0 2,0 15 8 NNW - 10
16.02.2019 22:00:00 5,0 3,2 15 8 N 1029,2 10
16.02.2019 21:00:00 5,0 2,0 9 5 NNW - 10
16.02.2019 20:00:00 5,0 1,0 9 5 NNW - 10
16.02.2019 19:00:00 6,2 1,3 15 8 NNW 1028,7 10
16.02.2019 18:00:00 6,0 0,0 22 12 N - 10
16.02.2019 17:00:00 7,0 -2,0 22 12 N - 10
16.02.2019 16:00:00 8,2 -1,9 18 10 NNW 1028,4 10
16.02.2019 15:00:00 9,0 -1,0 21 11 NNW - 10
16.02.2019 14:00:00 9,0 -1,0 18 10 NNW - 10
16.02.2019 13:00:00 8,4 -1,1 18 10 N 1028,7 10
16.02.2019 12:00:00 9,0 0,0 21 11 N - 10
16.02.2019 11:00:00 8,0 1,0 15 8 N - 10
16.02.2019 10:00:00 7,0 1,3 15 8 NNW 1028,9 10
16.02.2019 09:00:00 5,0 1,0 13 7 NW - 10
16.02.2019 08:00:00 3,0 1,0 5 3 WNW - 10
16.02.2019 07:00:00 1,4 -0,5 2 1 N 1028,3 10
16.02.2019 06:00:00 2,0 0,0 5 3 N - 10
16.02.2019 05:00:00 3,0 -1,0 9 5 N - 10
16.02.2019 04:00:00 3,0 -0,5 11 6 N 1027,5 10
16.02.2019 03:00:00 3,0 0,0 9 5 N - 10
16.02.2019 02:00:00 4,0 0,0 8 4 N - 10
16.02.2019 01:00:00 3,0 -0,3 8 4 NNW 1027,8 10
16.02.2019 00:00:00 3,0 0,0 8 4 N - 10
15.02.2019 23:00:00 3,0 0,0 4 2 NNW - 10
15.02.2019 22:00:00 3,2 0,4 8 4 NNW 1027,5 10
15.02.2019 21:00:00 4,0 2,0 8 4 NNW - 10
15.02.2019 20:00:00 4,0 3,0 8 4 NNW - 10
15.02.2019 19:00:00 4,0 2,8 9 5 NNW 1026,1 10
15.02.2019 18:00:00 5,0 3,0 11 6 N - 10
15.02.2019 17:00:00 5,0 2,0 15 8 NNW - 10
15.02.2019 16:00:00 7,0 4,1 18 10 N 1025,4 10
15.02.2019 15:00:00 5,0 2,0 18 10 NNO - 10
15.02.2019 14:00:00 9,0 6,0 31 17 NNO - 10
15.02.2019 13:00:00 9,2 0,6 29 16 NNW 1025,3 10
15.02.2019 12:00:00 9,0 -1,0 29 16 N - 10
15.02.2019 11:00:00 9,0 0,0 34 18 N - 10
15.02.2019 10:00:00 7,8 3,1 24 13 NNW 1025,9 10
15.02.2019 09:00:00 7,0 3,0 22 12 NNW - 10
15.02.2019 08:00:00 6,0 3,0 22 12 NNW - 10
15.02.2019 07:00:00 5,0 3,0 16 9 NNW 1026,7 10
15.02.2019 06:00:00 5,0 3,0 22 12 NNW - 10
15.02.2019 05:00:00 5,0 3,0 16 9 NNW - 10
15.02.2019 04:00:00 5,4 3,1 21 11 NNW 1026,9 10
15.02.2019 03:00:00 6,0 3,0 21 11 NNW - 10
15.02.2019 02:00:00 6,0 3,0 24 13 NNW - 10
15.02.2019 01:00:00 5,8 2,3 24 13 NW 1027,4 10
15.02.2019 00:00:00 5,0 2,0 22 12 NW - 10
14.02.2019 23:00:00 5,0 2,0 15 8 NNW - 10
14.02.2019 22:00:00 5,6 1,7 24 13 NNW 1027,6 10
14.02.2019 21:00:00 6,0 2,0 24 13 NW - 10
14.02.2019 20:00:00 6,0 3,0 24 13 NNW - 10
14.02.2019 19:00:00 6,8 2,7 18 10 NNW 1027,8 10
14.02.2019 18:00:00 7,0 2,0 21 11 NNW - 10
14.02.2019 17:00:00 8,0 2,0 24 13 NNW - 10
14.02.2019 16:00:00 8,8 2,1 31 17 N 1028,5 10
14.02.2019 15:00:00 10,0 2,0 29 16 NNW - 10
14.02.2019 14:00:00 9,0 3,0 35 19 NNW - 10
14.02.2019 13:00:00 9,2 3,6 31 17 NNW 1029,9 10
14.02.2019 12:00:00 9,0 3,0 31 17 NNW - 10
14.02.2019 11:00:00 8,0 3,0 37 20 NNW - 10
14.02.2019 10:00:00 7,4 2,1 34 18 NNW 1029,9 10
14.02.2019 09:00:00 6,0 1,0 34 18 NNW - 10
14.02.2019 08:00:00 5,0 -1,0 29 16 NNW - 10
14.02.2019 07:00:00 2,4 -2,5 26 14 NW 1030,8 10
14.02.2019 06:00:00 - - - - - - -
14.02.2019 05:00:00 2,0 -5,0 13 7 NW - 10
14.02.2019 04:00:00 3,2 -6,0 21 11 NNW 1030,6 10
14.02.2019 03:00:00 3,0 -6,0 22 12 N - 10
14.02.2019 02:00:00 - - - - - - -
14.02.2019 01:00:00 3,0 -6,9 28 15 N 1030,7 10
14.02.2019 00:00:00 3,0 -7,0 28 15 N - 10
13.02.2019 23:00:00 4,0 -7,0 28 15 N - 10
13.02.2019 22:00:00 3,8 -9,6 29 16 N 1030,0 10
13.02.2019 21:00:00 4,0 -9,0 37 20 N - 10
13.02.2019 20:00:00 5,0 -10,0 44 24 N - 10
13.02.2019 19:00:00 4,6 -10,3 46 25 N 1027,6 10
13.02.2019 18:00:00 5,0 -10,0 41 22 N - 10
13.02.2019 17:00:00 5,0 -11,0 52 28 N - 10
13.02.2019 16:00:00 5,8 -10,0 46 25 N 1026,7 10
13.02.2019 15:00:00 6,0 -10,0 46 25 N - 10
13.02.2019 14:00:00 6,0 -9,0 44 24 N - 10
13.02.2019 13:00:00 5,2 -9,4 39 21 N 1027,7 10
13.02.2019 12:00:00 5,0 -9,0 41 22 N - 10
13.02.2019 11:00:00 5,0 -10,0 44 24 N - 10
13.02.2019 10:00:00 4,8 -9,7 48 26 N 1027,5 10
13.02.2019 09:00:00 4,0 -9,0 46 25 N - 10
13.02.2019 08:00:00 4,0 -9,0 42 23 N - 10
13.02.2019 07:00:00 3,8 -9,2 42 23 N 1026,3 10
13.02.2019 06:00:00 3,0 -10,0 44 24 N - 10
13.02.2019 05:00:00 4,0 -9,0 42 23 N - 10
13.02.2019 04:00:00 3,8 -9,2 41 22 N 1024,8 10
13.02.2019 03:00:00 4,0 -10,0 37 20 N - 10
13.02.2019 02:00:00 5,0 -8,0 31 17 N - 10
13.02.2019 01:00:00 4,8 -9,0 39 21 N 1024,6 10
13.02.2019 00:00:00 5,0 -9,0 35 19 N - 10
12.02.2019 23:00:00 5,0 -8,0 31 17 N - 10
12.02.2019 22:00:00 5,0 -8,1 35 19 N 1023,9 10
12.02.2019 21:00:00 5,0 -6,0 35 19 N - 10
12.02.2019 20:00:00 5,0 -5,0 22 12 NNW - 10
12.02.2019 19:00:00 5,0 -4,8 21 11 NNW 1022,2 10
12.02.2019 18:00:00 5,0 -6,0 28 15 N - 10
12.02.2019 17:00:00 6,0 -5,0 22 12 N - 10
12.02.2019 16:00:00 6,0 -5,6 31 17 NNW 1019,8 10
12.02.2019 15:00:00 6,0 -4,0 31 17 N - 10
12.02.2019 14:00:00 7,0 -4,0 29 16 NNW - 10
12.02.2019 13:00:00 7,0 -3,8 34 18 N 1018,3 10
12.02.2019 12:00:00 7,0 -3,0 35 19 NNW - 10
12.02.2019 11:00:00 7,0 -4,0 37 20 N - 10
12.02.2019 10:00:00 7,2 -4,8 41 22 N 1017,1 10
12.02.2019 09:00:00 7,0 -3,0 26 14 N - 10
12.02.2019 08:00:00 5,0 -1,0 21 11 NNW - 10
12.02.2019 07:00:00 5,0 -1,7 22 12 NNW 1014,7 10
12.02.2019 06:00:00 5,0 -1,0 28 15 NNW - 10
12.02.2019 05:00:00 5,0 2,0 29 16 NNW - 10
12.02.2019 04:00:00 4,6 1,4 21 11 NNW 1013,1 10
12.02.2019 03:00:00 4,0 3,0 24 13 WNW - 10
12.02.2019 02:00:00 4,0 3,0 28 15 WNW - 10
12.02.2019 01:00:00 4,0 2,5 15 8 WNW 1012,6 10

tt = temperatuur
td = dauwpunt
ff = windsnelheid
dd = windrichting
ppp = luchtdruk
vv = zicht

Weerstations in de omgeving